Change the Weather History Date:

Saturday, March 8, 2014

  Actual Average Record
Temperature  
Mean Temperature 17 °F -  
Max Temperature 28 °F 29 °F 41 °F (2013)
Min Temperature 6 °F 10 °F -20 °F (2008)
Degree Days  
Heating Degree Days 48    
Moisture  
Dew Point 8 °F    
Average Humidity 67    
Maximum Humidity 86    
Minimum Humidity 43    
Precipitation  
Precipitation 0.00 in - - ()
Sea Level Pressure  
Sea Level Pressure 30.16 in    
Wind  
Wind Speed 5 mph (North)    
Max Wind Speed 13 mph    
Max Gust Speed 16 mph    
Visibility 10 miles    
Events Snow    
Averages and records for this station are not official NWS values.
T = Trace of Precipitation, MM = Missing Value Source: NWS Daily Summary

Daily Weather History Graph

Daily Weather History Graph

Search for Another Location

Airport or City:

Trip Planner

Search our weather history database for the weather conditions in past years. The results will help you decide how hot, cold, wet, or windy it might be!

Date:

Astronomy

Mar. 08, 2014 Rise Set
Actual Time 6:27 AM CST 5:58 PM CST
Civil Twilight 5:57 AM CST 6:27 PM CST
Nautical Twilight 5:23 AM CST 7:02 PM CST
Astronomical Twilight 4:48 AM CST 7:37 PM CST
Moon 10:49 AM CST (3/8) 1:14 AM CST (3/8)
Length of Visible Light 12h 30m
Length of Day
11h 30m
First Quarter, 52% of the Moon is Illuminated
Mar 8
First Quarter
Mar 16
Full
Mar 23
Last Quarter
Mar 30
New
Apr 7
First Quarter

Hourly Weather History & Observations

Time (CST) Temp. Windchill Dew Point Humidity Pressure Visibility Wind Dir Wind Speed Gust Speed Precip Events Conditions
12:15 AM 17.6 °F 5.7 °F 12.4 °F 80% 30.11 in 10.0 mi NNE 10.4 mph - N/A   Overcast
12:35 AM 17.2 °F 3.9 °F 10.9 °F 76% 30.12 in 10.0 mi NNE 12.7 mph 16.1 mph N/A   Overcast
12:55 AM 17.2 °F 6.8 °F 10.9 °F 76% 30.12 in 10.0 mi NE 8.1 mph - N/A   Overcast
1:15 AM 16.7 °F 6.2 °F 10.4 °F 76% 30.13 in 10.0 mi NNE 8.1 mph - N/A   Overcast
1:35 AM 16.7 °F 6.2 °F 10.4 °F 76% 30.14 in 10.0 mi NE 8.1 mph - N/A   Overcast
1:55 AM 16.5 °F 6.0 °F 10.4 °F 77% 30.14 in 10.0 mi NE 8.1 mph - N/A   Overcast
2:15 AM 16.2 °F 5.5 °F 10.4 °F 78% 30.14 in 10.0 mi NE 8.1 mph - N/A   Overcast
2:35 AM 15.6 °F 4.9 °F 10.2 °F 79% 30.14 in 10.0 mi NNE 8.1 mph - N/A Snow Light Snow
2:55 AM 15.4 °F 5.6 °F 10.0 °F 79% 30.14 in 10.0 mi NE 6.9 mph - N/A   Overcast
3:15 AM 14.4 °F 5.5 °F 9.5 °F 81% 30.14 in 10.0 mi NE 5.8 mph - N/A Snow Light Snow
3:35 AM 14.2 °F 6.7 °F 9.5 °F 82% 30.15 in 10.0 mi NNE 4.6 mph - N/A   Overcast
3:55 AM 14.2 °F 8.4 °F 9.5 °F 82% 30.16 in 10.0 mi North 3.5 mph - N/A Snow Light Snow
4:15 AM 13.5 °F - 9.5 °F 84% 30.16 in 10.0 mi Calm Calm - N/A   Overcast
4:35 AM 13.8 °F 8.0 °F 9.9 °F 84% 30.17 in 10.0 mi North 3.5 mph - N/A   Overcast
4:55 AM 13.1 °F 7.1 °F 9.5 °F 86% 30.17 in 10.0 mi NNE 3.5 mph - N/A Snow Light Snow
5:15 AM 14.0 °F 8.2 °F 10.0 °F 84% 30.18 in 7.0 mi NE 3.5 mph - N/A Snow Light Snow
5:35 AM 14.0 °F 6.5 °F 10.0 °F 84% 30.18 in 10.0 mi NE 4.6 mph - N/A   Overcast
5:55 AM 13.6 °F - 9.9 °F 85% 30.18 in 10.0 mi Calm Calm - N/A Snow Light Snow
6:15 AM 13.1 °F - 9.5 °F 86% 30.18 in 7.0 mi Calm Calm - N/A Snow Light Snow
6:35 AM 12.6 °F - 9.1 °F 86% 30.20 in 10.0 mi Calm Calm - N/A   Overcast
6:55 AM 13.5 °F 7.5 °F 9.5 °F 84% 30.21 in 10.0 mi NE 3.5 mph - N/A Snow Light Snow
7:15 AM 13.8 °F - 9.5 °F 83% 30.21 in 7.0 mi Calm Calm - N/A Snow Light Snow
7:35 AM 14.0 °F 8.2 °F 9.3 °F 82% 30.21 in 7.0 mi ENE 3.5 mph - N/A Snow Light Snow
7:55 AM 14.2 °F - 9.0 °F 80% 30.21 in 7.0 mi Calm Calm - N/A Snow Light Snow
8:15 AM 14.5 °F 8.8 °F 8.6 °F 77% 30.22 in 10.0 mi North 3.5 mph - N/A   Overcast
8:35 AM 14.7 °F 4.8 °F 8.6 °F 77% 30.22 in 10.0 mi NE 6.9 mph - N/A Snow Light Snow
8:55 AM 14.9 °F 6.1 °F 8.2 °F 75% 30.22 in 10.0 mi NE 5.8 mph - N/A Snow Light Snow
9:15 AM 15.4 °F 6.8 °F 8.1 °F 73% 30.23 in 10.0 mi NNE 5.8 mph - N/A   Overcast
9:35 AM 15.8 °F - 8.1 °F 72% 30.23 in 10.0 mi Calm Calm - N/A Snow Light Snow
9:55 AM 16.3 °F 9.2 °F 7.7 °F 69% 30.23 in 10.0 mi North 4.6 mph - N/A   Overcast
10:15 AM 16.9 °F - 8.6 °F 70% 30.23 in 10.0 mi Calm Calm - N/A Snow Light Snow
10:35 AM 17.6 °F 12.3 °F 9.3 °F 70% 30.23 in 10.0 mi North 3.5 mph - N/A Snow Light Snow
10:55 AM 17.6 °F 12.3 °F 8.6 °F 68% 30.23 in 10.0 mi NW 3.5 mph - N/A   Mostly Cloudy
11:15 AM 19.6 °F - 8.8 °F 63% 30.22 in 10.0 mi Calm Calm - N/A   Mostly Cloudy
11:40 AM 20.1 °F 15.2 °F 9.0 °F 62% 30.21 in 10.0 mi North 3.5 mph - N/A   Scattered Clouds
11:55 AM 21.9 °F 13.4 °F 8.6 °F 57% 30.21 in 10.0 mi NW 6.9 mph - N/A   Scattered Clouds
12:15 PM 21.7 °F - 8.8 °F 57% 30.20 in 10.0 mi Calm Calm - N/A   Clear
12:35 PM 23.4 °F 18.9 °F 9.0 °F 54% 30.19 in 10.0 mi SE 3.5 mph - N/A   Clear
12:55 PM 24.4 °F - 9.3 °F 53% 30.18 in 10.0 mi Calm Calm - N/A   Clear
1:15 PM 24.4 °F - 9.9 °F 54% 30.17 in 10.0 mi Calm Calm - N/A   Scattered Clouds
1:35 PM 25.2 °F 16.5 °F 9.3 °F 51% 30.16 in 10.0 mi NNW 8.1 mph - N/A   Clear
1:55 PM 25.5 °F 19.9 °F 9.1 °F 50% 30.15 in 10.0 mi West 4.6 mph - N/A   Clear
2:15 PM 26.1 °F 20.5 °F 9.1 °F 49% 30.14 in 10.0 mi West 4.6 mph - N/A   Clear
2:35 PM 27.0 °F 21.6 °F 9.3 °F 48% 30.14 in 10.0 mi West 4.6 mph - N/A   Clear
2:55 PM 27.5 °F 21.1 °F 8.1 °F 44% 30.13 in 10.0 mi WNW 5.8 mph - N/A   Clear
3:15 PM 27.5 °F 21.1 °F 8.6 °F 45% 30.13 in 10.0 mi West 5.8 mph - N/A   Clear
3:35 PM 27.7 °F 21.3 °F 8.8 °F 45% 30.13 in 10.0 mi NW 5.8 mph - N/A   Clear
3:55 PM 27.9 °F 19.1 °F 9.5 °F 46% 30.13 in 10.0 mi WSW 9.2 mph - N/A   Clear
4:20 PM 28.0 °F 20.0 °F 9.1 °F 45% 30.13 in 10.0 mi WSW 8.1 mph - N/A   Clear
4:35 PM 27.9 °F 22.6 °F 8.4 °F 44% 30.13 in 10.0 mi West 4.6 mph - N/A   Clear
4:55 PM 27.1 °F 20.7 °F 7.9 °F 44% 30.13 in 10.0 mi West 5.8 mph - N/A   Clear
5:15 PM 27.1 °F 19.7 °F 7.3 °F 43% 30.13 in 10.0 mi West 6.9 mph - N/A   Clear
5:35 PM 26.2 °F 18.6 °F 7.3 °F 45% 30.13 in 10.0 mi WSW 6.9 mph - N/A   Clear
5:55 PM 25.0 °F - 7.5 °F 48% 30.13 in 10.0 mi Calm Calm - N/A   Clear
6:15 PM 24.3 °F 19.9 °F 7.7 °F 49% 30.13 in 10.0 mi WSW 3.5 mph - N/A   Clear
6:35 PM 23.4 °F - 7.3 °F 50% 30.13 in 10.0 mi Calm Calm - N/A   Clear
6:55 PM 22.8 °F - 6.3 °F 49% 30.13 in 10.0 mi Calm Calm - N/A   Clear
7:15 PM 22.3 °F - 5.9 °F 50% 30.13 in 10.0 mi Calm Calm - N/A   Clear
7:35 PM 21.2 °F 16.4 °F 6.1 °F 52% 30.13 in 10.0 mi West 3.5 mph - N/A   Clear
7:55 PM 20.3 °F - 5.9 °F 54% 30.12 in 10.0 mi Calm Calm - N/A   Clear
8:15 PM 19.2 °F - 6.1 °F 57% 30.13 in 10.0 mi Calm Calm - N/A   Clear
8:35 PM 18.1 °F - 5.9 °F 59% 30.13 in 10.0 mi Calm Calm - N/A   Clear
8:55 PM 15.4 °F - 5.4 °F 64% 30.13 in 10.0 mi Calm Calm - N/A   Clear
9:15 PM 15.1 °F 9.4 °F 5.4 °F 65% 30.13 in 10.0 mi SW 3.5 mph - N/A   Clear
9:35 PM 14.0 °F - 5.4 °F 69% 30.13 in 10.0 mi Calm Calm - N/A   Clear
9:55 PM 12.0 °F - 4.1 °F 71% 30.12 in 10.0 mi Calm Calm - N/A   Clear
10:15 PM 12.2 °F - 4.3 °F 71% 30.11 in 10.0 mi Calm Calm - N/A   Clear
10:35 PM 8.8 °F - 2.3 °F 75% 30.11 in 10.0 mi Calm Calm - N/A   Clear
10:55 PM 7.5 °F - 1.8 °F 77% 30.12 in 10.0 mi Calm Calm - N/A   Clear
11:15 PM 6.3 °F - 1.4 °F 80% 30.11 in 10.0 mi Calm Calm - N/A   Clear
11:35 PM 6.8 °F - 1.6 °F 79% 30.10 in 10.0 mi Calm Calm - N/A   Clear
11:55 PM 6.3 °F - 1.8 °F 82% 30.09 in 10.0 mi Calm Calm - N/A   Clear